This is the latest recevied weather packets stored in our database for station/object K5IDL. If no packets are shown the sender has not sent any weather packets the latest 10 day(s).
| Time | Temp. | Humidity | Pressure | Rain* | Wind** | Luminosity | Snow |
|---|---|---|---|---|---|---|---|
| 1788653603 | 35.56° C | 45% | 1012.4 hPa | 0 mm | - | 11 W/m² | - |
| 1788653299 | 35.56° C | 45% | 1011.9 hPa | 0 mm | - | 12 W/m² | - |
| 1788652993 | 36.11° C | 44% | 1011.9 hPa | 0 mm | - | 13 W/m² | - |
| 1788652689 | 36.11° C | 44% | 1011.8 hPa | 0 mm | - | 14 W/m² | - |
| 1788652388 | 36.11° C | 44% | 1012 hPa | 0 mm | - | 15 W/m² | - |
| 1788652084 | 36.11° C | 44% | 1011.8 hPa | 0 mm | - | 16 W/m² | - |
| 1788651779 | 36.11° C | 44% | 1011.8 hPa | 0 mm | - | 16 W/m² | - |
| 1788651474 | 36.11° C | 44% | 1011.9 hPa | 0 mm | - | 17 W/m² | - |
| 1788651174 | 36.11° C | 44% | 1011.8 hPa | 0 mm | - | 18 W/m² | - |
| 1788650873 | 36.11° C | 44% | 1011.9 hPa | 0 mm | - | 18 W/m² | - |
| 1788650569 | 36.11° C | 43% | 1011.9 hPa | 0 mm | - | 19 W/m² | - |
| 1788650265 | 36.11° C | 43% | 1011.9 hPa | 0 mm | - | 20 W/m² | - |
| 1788649960 | 36.11° C | 42% | 1012 hPa | 0 mm | - | 23 W/m² | - |
| 1788649656 | 36.11° C | 41% | 1012 hPa | 0 mm | - | 20 W/m² | - |
| 1788649354 | 36.11° C | 42% | 1011.9 hPa | 0 mm | - | 21 W/m² | - |
| 1788649076 | 36.67° C | 40% | 1011.9 hPa | 0 mm | - | 21 W/m² | - |
| 1788648749 | 36.67° C | 40% | 1011.9 hPa | 0 mm | - | 21 W/m² | - |
| 1788648448 | 36.67° C | 41% | 1011.8 hPa | 0 mm | - | 33 W/m² | - |
| 1788648143 | 36.67° C | 41% | 1011.7 hPa | 0 mm | - | 52 W/m² | - |
| 1788647840 | 36.67° C | 43% | 1011.7 hPa | 0 mm | - | 48 W/m² | - |
| 1788647536 | 36.67° C | 41% | 1011.8 hPa | 0 mm | - | 31 W/m² | - |
| 1788647232 | 36.67° C | 42% | 1011.8 hPa | 0 mm | - | 42 W/m² | - |
| 1788646946 | 37.78° C | 40% | 1011.8 hPa | 0 mm | - | 60 W/m² | - |
| 1788646627 | 37.22° C | 41% | 1011.9 hPa | 0 mm | - | 32 W/m² | - |
| 1788646323 | 37.22° C | 40% | 1012.1 hPa | 0 mm | - | 64 W/m² | - |
* Rain latest hour (hover to see other rain measurements)
** Current wind speed in m/s (hover to see current wind gust speed)